Location: Asheville, NC
(35.6000°N, 82.5500°W)
Time: 14:38:31
(UTC-04:00)

XW-2C - Pass Details

Date: 09 January 2018
Orbit: 511 x 530 km, 97.5° (Epoch: 20 April)

Event Time Altitude Azimuth Distance (km) Brightness Sun altitude
Rises 05:29:46 0° 36° (NE) 2,647 ? -26.0°
Reaches altitude 10° 05:33:03 10° 68° (ENE) 1,748 ? -25.3°
Maximum altitude 05:34:37 12° 93° (E) 1,606 ? -25.0°
Drops below altitude 10° 05:36:10 10° 117° (ESE) 1,738 ? -24.7°
Sets 05:39:24 0° 149° (SSE) 2,613 ? -24.0°
